"read_dt","SO2 (ppb)","flags","PMT voltage (V)","lamp voltage (V)","lamp intensity (Hz)","internal temp (C)","react chamber temp (C)","sample flow (l/min)","pres (mmHg)","SO2 bkg (ppb)","SO2 coefficient"
2016-04-17 00:00:00,1805E-3,5C000400,-0724,0835,10952,021.1,045.2,0.267,759.8,01.16,0.508
2016-04-17 00:01:00,1825E-3,5C000400,-0724,0835,12474,021.1,045.3,0.267,759.8,01.16,0.508
2016-04-17 00:02:00,1711E-3,5C000400,-0724,0836,12301,021.1,045.3,0.267,759.8,01.16,0.508
2016-04-17 00:03:00,1819E-3,5C000400,-0724,0834,12152,021.1,045.3,0.267,759.8,01.16,0.508
2016-04-17 00:04:00,1784E-3,5C000410,-0724,0835,11390,021.1,045.3,0.267,759.8,01.16,0.508
2016-04-17 00:05:00,1632E-3,5C000400,-0724,0834,12197,021.1,045.3,0.267,759.8,01.16,0.508
2016-04-17 00:06:00,1774E-3,5C000400,-0724,0835,11168,021.2,045.2,0.267,759.8,01.16,0.508
2016-04-17 00:07:00,1857E-3,5C000400,-0724,0835,12256,021.2,045.3,0.267,759.8,01.16,0.508
2016-04-17 00:08:00,1757E-3,5C000400,-0724,0837,12229,021.2,045.3,0.267,759.7,01.16,0.508
2016-04-17 00:09:00,1665E-3,5C000400,-0724,0836,12085,021.1,045.3,0.267,759.7,01.16,0.508
2016-04-17 00:10:00,1868E-3,5C000400,-0724,0835,12002,021.1,045.3,0.267,759.7,01.16,0.508
2016-04-17 00:11:00,1897E-3,5C000400,-0724,0834,12367,021.1,045.3,0.266,759.7,01.16,0.508
2016-04-17 00:12:00,1692E-3,5C000400,-0724,0834,12252,021.2,045.3,0.267,759.7,01.16,0.508
2016-04-17 00:13:00,1827E-3,5C000400,-0724,0834,12067,021.2,045.3,0.267,759.7,01.16,0.508
2016-04-17 00:14:00,1769E-3,5C000400,-0724,0837,11202,021.1,045.2,0.267,759.7,01.16,0.508
2016-04-17 00:15:00,1762E-3,5C000400,-0724,0833,12137,021.2,045.3,0.267,759.7,01.16,0.508
2016-04-17 00:16:00,1714E-3,5C000400,-0724,0834,12108,021.2,045.3,0.267,759.7,01.16,0.508
2016-04-17 00:17:00,1753E-3,5C000400,-0724,0834,12225,021.2,045.3,0.267,759.6,01.16,0.508
2016-04-17 00:18:00,1863E-3,5C000400,-0724,0834,12152,021.2,045.3,0.266,759.6,01.16,0.508
2016-04-17 00:19:00,1762E-3,5C000400,-0724,0835,11006,021.2,045.3,0.267,759.6,01.16,0.508
2016-04-17 00:20:00,1859E-3,5C000400,-0724,0837,12280,021.2,045.3,0.267,759.6,01.16,0.508
2016-04-17 00:21:00,1824E-3,5C000400,-0724,0834,12061,021.2,045.3,0.267,759.6,01.16,0.508
2016-04-17 00:22:00,1780E-3,5C000400,-0724,0836,12264,021.2,045.3,0.266,759.6,01.16,0.508
2016-04-17 00:23:00,1841E-3,5C000400,-0724,0834,12300,021.2,045.3,0.267,759.6,01.16,0.508
2016-04-17 00:24:00,1834E-3,5C000400,-0724,0834,12161,021.2,045.3,0.267,759.6,01.16,0.508
2016-04-17 00:25:00,1779E-3,5C000400,-0724,0835,12226,021.2,045.3,0.267,759.6,01.16,0.508
2016-04-17 00:26:00,1760E-3,5C000400,-0724,0837,11193,021.2,045.3,0.267,759.7,01.16,0.508
2016-04-17 00:27:00,1805E-3,5C000400,-0724,0833,12163,021.2,045.3,0.267,759.6,01.16,0.508
2016-04-17 00:28:00,1728E-3,5C000400,-0724,0833,12228,021.2,045.3,0.267,759.6,01.16,0.508
2016-04-17 00:29:00,1763E-3,5C000400,-0724,0836,12336,021.2,045.3,0.267,759.6,01.16,0.508
2016-04-17 00:30:00,1841E-3,5C000400,-0724,0835,12138,021.2,045.3,0.266,759.6,01.16,0.508
2016-04-17 00:31:00,1673E-3,5C000400,-0724,0834,12286,021.3,045.3,0.266,759.6,01.16,0.508
2016-04-17 00:32:00,1751E-3,5C000400,-0724,0835,12185,021.2,045.3,0.266,759.6,01.16,0.508
2016-04-17 00:33:00,1876E-3,5C000400,-0724,0836,12250,021.2,045.3,0.266,759.6,01.16,0.508
2016-04-17 00:34:00,1798E-3,5C000400,-0724,0836,12417,021.3,045.3,0.267,759.6,01.16,0.508
2016-04-17 00:35:00,1736E-3,5C000400,-0724,0836,11055,021.3,045.3,0.267,759.6,01.16,0.508
2016-04-17 00:36:00,1736E-3,5C000400,-0724,0834,12058,021.3,045.3,0.267,759.6,01.16,0.508
2016-04-17 00:37:00,1870E-3,5C000400,-0724,0834,12161,021.2,045.3,0.267,759.6,01.16,0.508
2016-04-17 00:38:00,1728E-3,5C000400,-0724,0835,12210,021.3,045.3,0.266,759.6,01.16,0.508
2016-04-17 00:39:00,1851E-3,5C000400,-0724,0833,12163,021.3,045.3,0.267,759.6,01.16,0.508
2016-04-17 00:40:00,1868E-3,5C000400,-0724,0834,12317,021.3,045.3,0.267,759.6,01.16,0.508
2016-04-17 00:41:00,1808E-3,5C000400,-0724,0835,12219,021.3,045.3,0.267,759.5,01.16,0.508
2016-04-17 00:42:00,1858E-3,5C000400,-0724,0835,12155,021.3,045.3,0.267,759.5,01.16,0.508
2016-04-17 00:43:00,1675E-3,5C000400,-0724,0835,12078,021.3,045.3,0.266,759.5,01.16,0.508
2016-04-17 00:44:00,1895E-3,5C000400,-0724,0834,12191,021.3,045.3,0.267,759.5,01.16,0.508
2016-04-17 00:45:00,1811E-3,5C000400,-0724,0835,12485,021.3,045.3,0.266,759.5,01.16,0.508
2016-04-17 00:46:00,1784E-3,5C000400,-0724,0835,12169,021.4,045.3,0.267,759.5,01.16,0.508
2016-04-17 00:47:00,1722E-3,5C000400,-0724,0834,12184,021.4,045.3,0.267,759.5,01.16,0.508
2016-04-17 00:48:00,1819E-3,5C000400,-0724,0835,12159,021.3,045.3,0.266,759.4,01.16,0.508
2016-04-17 00:49:00,1935E-3,5C000400,-0724,0835,12088,021.4,045.3,0.267,759.4,01.16,0.508
2016-04-17 00:50:00,1765E-3,5C000400,-0724,0834,12094,021.4,045.3,0.266,759.4,01.16,0.508
2016-04-17 00:51:00,1701E-3,5C000400,-0724,0836,12401,021.3,045.3,0.267,759.4,01.16,0.508
2016-04-17 00:52:00,1862E-3,5C000400,-0724,0835,10901,021.3,045.3,0.267,759.4,01.16,0.508
2016-04-17 00:53:00,1688E-3,5C000400,-0724,0835,12159,021.3,045.3,0.267,759.4,01.16,0.508
2016-04-17 00:54:00,1830E-3,5C000400,-0724,0835,12115,021.4,045.3,0.266,759.4,01.16,0.508
2016-04-17 00:55:00,1808E-3,5C000400,-0724,0836,11110,021.4,045.3,0.266,759.4,01.16,0.508
2016-04-17 00:56:00,1760E-3,5C000400,-0724,0835,12460,021.4,045.3,0.266,759.3,01.16,0.508
2016-04-17 00:57:00,1632E-3,5C000400,-0724,0835,12384,021.4,045.2,0.267,759.3,01.16,0.508
2016-04-17 00:58:00,1783E-3,5C000400,-0724,0843,12917,021.4,045.3,0.267,759.3,01.16,0.508
2016-04-17 00:59:00,1724E-3,5C000400,-0724,0836,12360,021.4,045.3,0.267,759.3,01.16,0.508
2016-04-17 01:00:00,1742E-3,5C000410,-0724,0834,12511,021.4,045.3,0.266,759.3,01.16,0.508
2016-04-17 01:01:00,1829E-3,5C000400,-0724,0835,11091,021.4,045.3,0.267,759.3,01.16,0.508
2016-04-17 01:02:00,1855E-3,5C000400,-0724,0834,12217,021.4,045.3,0.267,759.3,01.16,0.508
2016-04-17 01:03:00,1743E-3,5C000400,-0724,0833,12081,021.4,045.3,0.266,759.3,01.16,0.508
2016-04-17 01:04:00,1784E-3,5C000400,-0724,0836,12270,021.4,045.3,0.267,759.3,01.16,0.508
2016-04-17 01:05:00,1858E-3,5C000400,-0724,0840,12408,021.4,045.3,0.266,759.2,01.16,0.508
2016-04-17 01:06:00,1722E-3,5C000400,-0724,0835,12358,021.4,045.3,0.266,759.2,01.16,0.508
2016-04-17 01:07:00,1793E-3,5C000400,-0724,0835,12379,021.4,045.3,0.267,759.2,01.16,0.508
2016-04-17 01:08:00,1670E-3,5C000400,-0724,0833,12151,021.4,045.3,0.267,759.2,01.16,0.508
2016-04-17 01:09:00,1710E-3,5C000400,-0724,0836,12231,021.4,045.3,0.267,759.2,01.16,0.508
2016-04-17 01:10:00,1862E-3,5C000400,-0724,0834,12097,021.4,045.3,0.267,759.2,01.16,0.508
2016-04-17 01:11:00,1772E-3,5C000400,-0724,0834,11338,021.4,045.3,0.267,759.3,01.16,0.508
2016-04-17 01:12:00,1798E-3,5C000400,-0724,0835,12169,021.4,045.3,0.267,759.2,01.16,0.508
2016-04-17 01:13:00,1807E-3,5C000400,-0724,0835,11183,021.5,045.3,0.267,759.2,01.16,0.508
2016-04-17 01:14:00,1766E-3,5C000410,-0724,0836,12572,021.5,045.3,0.267,759.2,01.16,0.508
2016-04-17 01:15:00,1779E-3,5C000400,-0724,0837,12211,021.5,045.3,0.266,759.2,01.16,0.508
2016-04-17 01:16:00,1751E-3,5C000400,-0724,0837,12328,021.5,045.3,0.266,759.2,01.16,0.508
2016-04-17 01:17:00,1730E-3,5C000400,-0724,0836,12259,021.5,045.3,0.266,759.1,01.16,0.508
2016-04-17 01:18:00,1727E-3,5C000400,-0724,0835,12302,021.5,045.3,0.266,759.1,01.16,0.508
2016-04-17 01:19:00,1765E-3,5C000400,-0724,0837,12162,021.5,045.3,0.267,759.1,01.16,0.508
2016-04-17 01:20:00,1720E-3,5C000400,-0724,0834,12175,021.5,045.3,0.266,759.1,01.16,0.508
2016-04-17 01:21:00,1675E-3,5C000400,-0724,0835,11507,021.5,045.3,0.266,759.1,01.16,0.508
2016-04-17 01:22:00,1681E-3,5C000400,-0724,0835,10994,021.5,045.3,0.267,759.1,01.16,0.508
2016-04-17 01:23:00,1797E-3,5C000400,-0724,0833,12220,021.5,045.3,0.266,759.0,01.16,0.508
2016-04-17 01:24:00,1620E-3,5C000400,-0724,0837,12487,021.5,045.3,0.267,759.0,01.16,0.508
2016-04-17 01:25:00,1672E-3,5C000400,-0724,0838,12272,021.5,045.3,0.266,759.0,01.16,0.508
2016-04-17 01:26:00,1690E-3,5C000400,-0724,0837,11132,021.5,045.3,0.266,759.0,01.16,0.508
2016-04-17 01:27:00,1788E-3,5C000400,-0724,0835,12433,021.5,045.3,0.266,759.0,01.16,0.508
2016-04-17 01:28:00,1595E-3,5C000400,-0724,0836,11190,021.5,045.3,0.266,759.0,01.16,0.508
2016-04-17 01:29:00,1790E-3,5C000400,-0724,0842,11226,021.5,045.3,0.266,759.0,01.16,0.508
2016-04-17 01:30:00,1658E-3,5C000400,-0724,0835,12395,021.5,045.3,0.266,758.9,01.16,0.508
2016-04-17 01:31:00,1826E-3,5C000400,-0724,0833,11190,021.5,045.3,0.266,758.9,01.16,0.508
2016-04-17 01:32:00,1758E-3,5C000400,-0724,0838,12281,021.5,045.3,0.266,758.9,01.16,0.508
2016-04-17 01:33:00,1623E-3,5C000400,-0724,0834,12199,021.5,045.3,0.266,758.9,01.16,0.508
2016-04-17 01:34:00,1836E-3,5C000400,-0724,0835,12102,021.6,045.3,0.266,758.9,01.16,0.508
2016-04-17 01:35:00,1805E-3,5C000400,-0724,0835,10974,021.6,045.3,0.266,758.9,01.16,0.508
2016-04-17 01:36:00,1756E-3,5C000400,-0724,0835,12435,021.6,045.3,0.266,758.9,01.16,0.508
2016-04-17 01:37:00,1728E-3,5C000400,-0724,0836,10971,021.6,045.3,0.266,758.9,01.16,0.508
2016-04-17 01:38:00,1743E-3,5C000400,-0724,0835,12241,021.6,045.3,0.266,758.9,01.16,0.508
2016-04-17 01:39:00,1710E-3,5C000400,-0724,0836,12142,021.6,045.3,0.266,758.9,01.16,0.508
2016-04-17 01:40:00,1700E-3,5C000400,-0724,0834,12204,021.5,045.3,0.266,758.8,01.16,0.508
2016-04-17 01:41:00,1614E-3,5C000400,-0724,0837,11446,021.6,045.3,0.266,758.8,01.16,0.508
2016-04-17 01:42:00,1739E-3,5C000400,-0724,0838,12260,021.6,045.3,0.266,758.8,01.16,0.508
2016-04-17 01:43:00,1713E-3,5C000400,-0724,0834,12352,021.6,045.3,0.266,758.8,01.16,0.508
2016-04-17 01:44:00,1815E-3,5C000400,-0724,0835,9822,021.6,045.3,0.266,758.8,01.16,0.508
2016-04-17 01:45:00,1650E-3,5C000400,-0724,0837,12372,021.6,045.3,0.266,758.8,01.16,0.508
2016-04-17 01:46:00,1782E-3,5C000400,-0724,0834,12327,021.6,045.3,0.266,758.7,01.16,0.508
2016-04-17 01:47:00,1723E-3,5C000400,-0724,0835,12265,021.6,045.3,0.266,758.7,01.16,0.508
2016-04-17 01:48:00,1672E-3,5C000400,-0724,0837,12209,021.6,045.3,0.266,758.7,01.16,0.508
2016-04-17 01:49:00,1744E-3,5C000400,-0724,0839,12430,021.6,045.3,0.266,758.7,01.16,0.508
2016-04-17 01:50:00,1715E-3,5C000400,-0724,0836,12300,021.6,045.3,0.266,758.7,01.16,0.508
2016-04-17 01:51:00,1731E-3,5C000400,-0724,0837,11093,021.6,045.3,0.266,758.7,01.16,0.508
2016-04-17 01:52:00,1859E-3,5C000400,-0724,0835,10992,021.7,045.3,0.266,758.6,01.16,0.508
2016-04-17 01:53:00,1771E-3,5C000400,-0724,0836,11288,021.6,045.3,0.266,758.6,01.16,0.508
2016-04-17 01:54:00,1833E-3,5C000400,-0724,0837,12244,021.6,045.3,0.266,758.6,01.16,0.508
2016-04-17 01:55:00,1850E-3,5C000400,-0724,0835,12474,021.7,045.3,0.266,758.6,01.16,0.508
2016-04-17 01:56:00,1757E-3,5C000400,-0724,0836,12282,021.7,045.3,0.266,758.6,01.16,0.508
2016-04-17 01:57:00,1718E-3,5C000400,-0724,0835,11023,021.7,045.3,0.266,758.6,01.16,0.508
2016-04-17 01:58:00,1617E-3,5C000400,-0724,0835,12188,021.7,045.3,0.266,758.6,01.16,0.508
2016-04-17 01:59:00,1749E-3,5C000400,-0724,0836,12185,021.7,045.3,0.266,758.6,01.16,0.508
2016-04-17 02:00:00,1714E-3,5C000400,-0724,0837,11311,021.7,045.3,0.266,758.6,01.16,0.508
2016-04-17 02:01:00,1672E-3,5C000410,-0724,0838,10013,021.7,045.3,0.266,758.6,01.16,0.508
2016-04-17 02:02:00,1663E-3,5C000400,-0724,0836,12361,021.7,045.3,0.266,758.6,01.16,0.508
2016-04-17 02:03:00,1757E-3,5C000400,-0724,0836,12307,021.7,045.3,0.266,758.6,01.16,0.508
2016-04-17 02:04:00,1741E-3,5C000400,-0724,0838,10988,021.7,045.3,0.266,758.6,01.16,0.508
2016-04-17 02:05:00,1743E-3,5C000400,-0724,0837,12327,021.7,045.3,0.266,758.6,01.16,0.508
2016-04-17 02:06:00,1637E-3,5C000400,-0724,0836,12186,021.7,045.3,0.266,758.6,01.16,0.508
2016-04-17 02:07:00,1818E-3,5C000400,-0724,0834,12229,021.8,045.3,0.266,758.6,01.16,0.508
2016-04-17 02:08:00,1803E-3,5C000400,-0724,0834,11221,021.7,045.3,0.266,758.5,01.16,0.508
2016-04-17 02:09:00,1767E-3,5C000400,-0724,0836,12400,021.8,045.3,0.266,758.5,01.16,0.508
2016-04-17 02:10:00,1776E-3,5C000400,-0724,0834,12024,021.7,045.3,0.266,758.5,01.16,0.508
2016-04-17 02:11:00,1724E-3,5C000400,-0724,0837,12313,021.8,045.3,0.266,758.6,01.16,0.508
2016-04-17 02:12:00,1689E-3,5C000400,-0724,0835,12433,021.8,045.2,0.265,758.5,01.16,0.508
2016-04-17 02:13:00,1768E-3,5C000400,-0724,0835,12220,021.8,045.3,0.266,758.5,01.16,0.508
2016-04-17 02:14:00,1778E-3,5C000400,-0724,0835,12290,021.8,045.3,0.266,758.5,01.16,0.508
2016-04-17 02:15:00,1646E-3,5C000400,-0724,0838,12315,021.8,045.3,0.265,758.6,01.16,0.508
2016-04-17 02:16:00,1760E-3,5C000400,-0724,0834,12182,021.8,045.3,0.266,758.5,01.16,0.508
2016-04-17 02:17:00,1592E-3,5C000400,-0724,0837,10046,021.8,045.3,0.266,758.6,01.16,0.508
2016-04-17 02:18:00,1671E-3,5C000400,-0724,0834,11957,021.8,045.3,0.266,758.6,01.16,0.508
2016-04-17 02:19:00,1937E-3,5C000400,-0724,0834,11015,021.8,045.3,0.266,758.5,01.16,0.508
2016-04-17 02:20:00,1655E-3,5C000400,-0724,0833,12223,021.9,045.3,0.265,758.5,01.16,0.508
2016-04-17 02:21:00,1764E-3,5C000400,-0724,0835,11144,021.9,045.3,0.266,758.5,01.16,0.508
2016-04-17 02:22:00,1812E-3,5C000400,-0724,0833,12083,021.9,045.3,0.265,758.5,01.16,0.508
2016-04-17 02:23:00,1706E-3,5C000400,-0724,0838,12338,021.9,045.3,0.266,758.5,01.16,0.508
2016-04-17 02:24:00,1858E-3,5C000400,-0724,0834,12344,021.9,045.3,0.266,758.5,01.16,0.508
2016-04-17 02:25:00,1713E-3,5C000400,-0724,0837,12282,021.9,045.3,0.266,758.5,01.16,0.508
2016-04-17 02:26:00,1788E-3,5C000400,-0724,0838,12367,021.9,045.3,0.265,758.4,01.16,0.508
2016-04-17 02:27:00,1753E-3,5C000400,-0724,0835,12253,021.9,045.3,0.266,758.4,01.16,0.508
2016-04-17 02:28:00,1732E-3,5C000400,-0724,0836,12311,021.9,045.3,0.266,758.4,01.16,0.508
2016-04-17 02:29:00,1733E-3,5C000400,-0724,0834,12208,021.9,045.3,0.266,758.4,01.16,0.508
2016-04-17 02:30:00,1868E-3,5C000400,-0724,0837,12279,021.9,045.3,0.266,758.4,01.16,0.508
2016-04-17 02:31:00,1834E-3,5C000400,-0724,0835,12369,021.9,045.3,0.266,758.4,01.16,0.508
2016-04-17 02:32:00,1826E-3,5C000400,-0724,0835,12176,021.9,045.3,0.266,758.4,01.16,0.508
2016-04-17 02:33:00,1797E-3,5C000400,-0724,0836,11079,021.9,045.3,0.266,758.4,01.16,0.508
2016-04-17 02:34:00,1712E-3,5C000400,-0724,0836,12168,022.0,045.3,0.266,758.4,01.16,0.508
2016-04-17 02:35:00,1815E-3,5C000400,-0724,0836,11100,021.9,045.3,0.265,758.4,01.16,0.508
2016-04-17 02:36:00,1851E-3,5C000400,-0724,0838,12286,021.9,045.3,0.265,758.4,01.16,0.508
2016-04-17 02:37:00,1821E-3,5C000400,-0724,0836,11127,022.0,045.3,0.266,758.4,01.16,0.508
2016-04-17 02:38:00,1618E-3,5C000400,-0724,0835,12367,022.0,045.3,0.266,758.4,01.16,0.508
2016-04-17 02:39:00,1688E-3,5C000400,-0724,0836,12401,022.0,045.3,0.265,758.3,01.16,0.508
2016-04-17 02:40:00,1736E-3,5C000400,-0724,0833,12109,022.0,045.3,0.266,758.3,01.16,0.508
2016-04-17 02:41:00,1696E-3,5C000400,-0724,0835,12213,022.0,045.3,0.265,758.3,01.16,0.508
2016-04-17 02:42:00,1783E-3,5C000400,-0724,0836,12165,022.0,045.3,0.266,758.3,01.16,0.508
2016-04-17 02:43:00,1676E-3,5C000400,-0724,0835,12242,022.0,045.3,0.265,758.3,01.16,0.508
2016-04-17 02:44:00,1804E-3,5C000400,-0724,0835,11053,022.0,045.3,0.266,758.3,01.16,0.508
2016-04-17 02:45:00,1640E-3,5C000400,-0724,0835,12238,022.0,045.3,0.265,758.3,01.16,0.508
2016-04-17 02:46:00,1809E-3,5C000400,-0724,0835,12036,022.0,045.3,0.266,758.3,01.16,0.508
2016-04-17 02:47:00,1880E-3,5C000400,-0724,0835,12221,022.0,045.3,0.265,758.3,01.16,0.508
2016-04-17 02:48:00,1782E-3,5C000400,-0724,0837,12436,022.0,045.3,0.266,758.3,01.16,0.508
2016-04-17 02:49:00,1746E-3,5C000400,-0724,0835,12318,022.1,045.3,0.265,758.3,01.16,0.508
2016-04-17 02:50:00,1794E-3,5C000400,-0724,0834,12264,022.0,045.3,0.266,758.3,01.16,0.508
2016-04-17 02:51:00,1778E-3,5C000400,-0724,0834,12165,022.1,045.3,0.265,758.3,01.16,0.508
2016-04-17 02:52:00,1901E-3,5C000400,-0724,0835,12139,022.1,045.3,0.265,758.3,01.16,0.508
2016-04-17 02:53:00,1852E-3,5C000400,-0724,0834,12154,022.1,045.3,0.265,758.3,01.16,0.508
2016-04-17 02:54:00,1754E-3,5C000410,-0724,0834,9734,022.1,045.3,0.265,758.3,01.16,0.508
2016-04-17 02:55:00,1715E-3,5C000400,-0724,0835,12045,022.1,045.3,0.265,758.3,01.16,0.508
2016-04-17 02:56:00,1806E-3,5C000400,-0724,0836,12124,022.1,045.3,0.265,758.3,01.16,0.508
2016-04-17 02:57:00,1641E-3,5C000400,-0724,0836,12333,022.1,045.3,0.265,758.3,01.16,0.508
2016-04-17 02:58:00,1735E-3,5C000400,-0724,0835,12439,022.1,045.3,0.265,758.3,01.16,0.508
2016-04-17 02:59:00,1945E-3,5C000400,-0724,0834,12306,022.1,045.3,0.266,758.3,01.16,0.508
2016-04-17 03:00:00,1779E-3,5C000400,-0724,0835,12078,022.1,045.3,0.266,758.3,01.16,0.508
2016-04-17 03:01:00,1767E-3,5C000400,-0724,0835,12194,022.1,045.3,0.266,758.3,01.16,0.508
2016-04-17 03:02:00,1854E-3,5C000400,-0724,0836,12268,022.1,045.3,0.265,758.3,01.16,0.508
2016-04-17 03:03:00,1831E-3,5C000400,-0724,0834,12307,022.2,045.3,0.265,758.3,01.16,0.508
2016-04-17 03:04:00,1738E-3,5C000400,-0724,0834,12199,022.2,045.3,0.265,758.3,01.16,0.508
2016-04-17 03:05:00,1744E-3,5C000400,-0724,0835,12174,022.2,045.3,0.265,758.3,01.16,0.508
2016-04-17 03:06:00,1734E-3,5C000400,-0724,0835,12328,022.2,045.3,0.266,758.3,01.16,0.508
2016-04-17 03:07:00,1809E-3,5C000400,-0724,0834,12132,022.2,045.3,0.265,758.2,01.16,0.508
2016-04-17 03:08:00,1774E-3,5C000400,-0724,0835,12077,022.2,045.3,0.265,758.2,01.16,0.508
2016-04-17 03:09:00,1884E-3,5C000400,-0724,0835,12117,022.2,045.3,0.266,758.2,01.16,0.508
2016-04-17 03:10:00,1887E-3,5C000400,-0724,0833,12239,022.2,045.3,0.265,758.2,01.16,0.508
2016-04-17 03:11:00,1792E-3,5C000400,-0724,0835,12230,022.2,045.3,0.265,758.3,01.16,0.508
2016-04-17 03:12:00,1831E-3,5C000400,-0724,0835,12188,022.2,045.3,0.265,758.3,01.16,0.508
2016-04-17 03:13:00,1759E-3,5C000400,-0724,0839,12319,022.2,045.3,0.265,758.3,01.16,0.508
2016-04-17 03:14:00,1718E-3,5C000400,-0724,0836,12064,022.2,045.3,0.265,758.3,01.16,0.508
2016-04-17 03:15:00,1818E-3,5C000400,-0724,0835,12219,022.2,045.3,0.265,758.3,01.16,0.508
2016-04-17 03:16:00,1747E-3,5C000400,-0724,0833,12062,022.2,045.3,0.265,758.3,01.16,0.508
2016-04-17 03:17:00,1893E-3,5C000400,-0724,0834,11984,022.2,045.3,0.265,758.3,01.16,0.508
2016-04-17 03:18:00,1914E-3,5C000400,-0724,0836,12112,022.3,045.3,0.265,758.3,01.16,0.508
2016-04-17 03:19:00,1713E-3,5C000400,-0724,0836,12403,022.3,045.3,0.265,758.3,01.16,0.508
2016-04-17 03:20:00,1765E-3,5C000400,-0724,0835,12143,022.2,045.3,0.265,758.3,01.16,0.508
2016-04-17 03:21:00,1794E-3,5C000400,-0724,0837,12251,022.2,045.3,0.265,758.2,01.16,0.508
2016-04-17 03:22:00,1811E-3,5C000400,-0724,0834,12273,022.3,045.3,0.265,758.2,01.16,0.508
2016-04-17 03:23:00,1759E-3,5C000400,-0724,0836,12108,022.3,045.3,0.265,758.2,01.16,0.508
2016-04-17 03:24:00,1795E-3,5C000400,-0724,0835,11122,022.2,045.3,0.265,758.2,01.16,0.508
2016-04-17 03:25:00,1887E-3,5C000400,-0724,0837,12294,022.3,045.3,0.265,758.2,01.16,0.508
2016-04-17 03:26:00,1815E-3,5C000400,-0724,0838,12423,022.3,045.3,0.265,758.2,01.16,0.508
2016-04-17 03:27:00,1827E-3,5C000400,-0724,0834,12073,022.3,045.3,0.265,758.2,01.16,0.508
2016-04-17 03:28:00,1731E-3,5C000400,-0724,0834,12300,022.3,045.3,0.264,758.2,01.16,0.508
2016-04-17 03:29:00,1800E-3,5C000400,-0724,0834,12341,022.3,045.3,0.265,758.1,01.16,0.508
2016-04-17 03:30:00,1800E-3,5C000400,-0724,0836,9964,022.3,045.3,0.265,758.1,01.16,0.508
2016-04-17 03:31:00,1749E-3,5C000400,-0724,0836,12143,022.3,045.3,0.265,758.1,01.16,0.508
2016-04-17 03:32:00,1718E-3,5C000400,-0724,0834,12316,022.3,045.3,0.265,758.1,01.16,0.508
2016-04-17 03:33:00,1758E-3,5C000400,-0724,0834,12128,022.3,045.3,0.265,758.1,01.16,0.508
2016-04-17 03:34:00,1714E-3,5C000400,-0724,0834,12146,022.3,045.3,0.265,758.1,01.16,0.508
2016-04-17 03:35:00,1907E-3,5C000400,-0724,0834,12090,022.3,045.3,0.265,758.1,01.16,0.508
2016-04-17 03:36:00,1811E-3,5C000400,-0724,0833,12221,022.4,045.3,0.264,758.1,01.16,0.508
2016-04-17 03:37:00,1595E-3,5C000400,-0724,0833,12043,022.4,045.3,0.265,758.1,01.16,0.508
2016-04-17 03:38:00,1652E-3,5C000400,-0724,0834,11914,022.4,045.3,0.265,758.0,01.16,0.508
2016-04-17 03:39:00,1769E-3,5C000400,-0724,0834,12162,022.4,045.3,0.265,758.0,01.16,0.508
2016-04-17 03:40:00,1820E-3,5C000400,-0724,0835,11161,022.4,045.3,0.264,758.0,01.16,0.508
2016-04-17 03:41:00,1685E-3,5C000400,-0724,0836,9815,022.4,045.3,0.265,758.0,01.16,0.508
2016-04-17 03:42:00,1753E-3,5C000400,-0724,0837,9815,022.4,045.3,0.265,758.0,01.16,0.508
2016-04-17 03:43:00,1682E-3,5C000400,-0724,0836,12377,022.4,045.3,0.265,758.0,01.16,0.508
2016-04-17 03:44:00,1777E-3,5C000400,-0724,0835,12362,022.4,045.3,0.265,758.0,01.16,0.508
2016-04-17 03:45:00,1846E-3,5C000400,-0724,0835,12222,022.4,045.3,0.265,758.0,01.16,0.508
2016-04-17 03:46:00,1657E-3,5C000400,-0724,0835,12210,022.5,045.3,0.265,758.0,01.16,0.508
2016-04-17 03:47:00,1769E-3,5C000400,-0724,0835,12282,022.5,045.3,0.265,758.0,01.16,0.508
2016-04-17 03:48:00,1553E-3,5C000410,-0724,0847,13139,022.5,045.3,0.264,758.0,01.16,0.508
2016-04-17 03:49:00,1799E-3,5C000400,-0724,0833,12313,022.5,045.3,0.265,758.0,01.16,0.508
2016-04-17 03:50:00,1709E-3,5C000400,-0724,0838,11372,022.5,045.3,0.265,757.9,01.16,0.508
2016-04-17 03:51:00,1707E-3,5C000400,-0724,0836,12351,022.5,045.3,0.264,757.9,01.16,0.508
2016-04-17 03:52:00,1863E-3,5C000400,-0724,0838,10986,022.5,045.3,0.265,757.9,01.16,0.508
2016-04-17 03:53:00,1866E-3,5C000400,-0724,0835,12190,022.5,045.3,0.265,757.9,01.16,0.508
2016-04-17 03:54:00,1730E-3,5C000400,-0724,0837,11023,022.5,045.3,0.265,757.9,01.16,0.508
2016-04-17 03:55:00,1737E-3,5C000400,-0724,0835,12161,022.5,045.3,0.265,757.9,01.16,0.508
2016-04-17 03:56:00,1689E-3,5C000410,-0724,0836,8822,022.5,045.3,0.264,757.8,01.16,0.508
2016-04-17 03:57:00,1743E-3,5C000400,-0724,0836,11429,022.6,045.3,0.264,757.8,01.16,0.508
2016-04-17 03:58:00,1738E-3,5C000400,-0724,0841,8878,022.5,045.3,0.265,757.9,01.16,0.508
2016-04-17 03:59:00,1706E-3,5C000400,-0724,0836,11056,022.6,045.3,0.265,757.9,01.16,0.508
2016-04-17 04:00:00,1751E-3,5C000400,-0724,0837,12169,022.5,045.3,0.264,757.9,01.16,0.508
2016-04-17 04:01:00,1711E-3,5C000400,-0724,0836,11090,022.6,045.3,0.265,757.9,01.16,0.508
2016-04-17 04:02:00,1692E-3,5C000400,-0724,0839,12367,022.6,045.3,0.265,757.8,01.16,0.508
2016-04-17 04:03:00,1731E-3,5C000400,-0724,0837,9898,022.6,045.3,0.264,757.8,01.16,0.508
2016-04-17 04:04:00,1771E-3,5C000400,-0724,0834,12245,022.6,045.3,0.265,757.8,01.16,0.508
2016-04-17 04:05:00,1638E-3,5C000400,-0724,0834,12326,022.6,045.3,0.264,757.8,01.16,0.508
2016-04-17 04:06:00,1758E-3,5C000400,-0724,0834,11065,022.6,045.3,0.265,757.8,01.16,0.508
2016-04-17 04:07:00,1767E-3,5C000400,-0724,0834,12344,022.6,045.3,0.264,757.7,01.16,0.508
2016-04-17 04:08:00,1766E-3,5C000400,-0724,0835,12443,022.7,045.3,0.265,757.7,01.16,0.508
2016-04-17 04:09:00,1728E-3,5C000400,-0724,0836,12369,022.7,045.3,0.264,757.7,01.16,0.508
2016-04-17 04:10:00,1679E-3,5C000400,-0724,0832,12337,022.7,045.3,0.265,757.7,01.16,0.508
2016-04-17 04:11:00,1624E-3,5C000400,-0724,0837,11328,022.7,045.3,0.264,757.7,01.16,0.508
2016-04-17 04:12:00,1618E-3,5C000400,-0724,0834,12237,022.7,045.3,0.264,757.7,01.16,0.508
2016-04-17 04:13:00,1717E-3,5C000400,-0724,0835,12312,022.7,045.3,0.264,757.7,01.16,0.508
2016-04-17 04:14:00,1672E-3,5C000400,-0724,0834,10929,022.7,045.3,0.265,757.6,01.16,0.508
2016-04-17 04:15:00,1793E-3,5C000400,-0724,0834,12255,022.7,045.3,0.264,757.7,01.16,0.508
2016-04-17 04:16:00,1799E-3,5C000400,-0724,0836,12370,022.8,045.3,0.264,757.7,01.16,0.508
2016-04-17 04:17:00,1745E-3,5C000400,-0724,0840,12579,022.8,045.3,0.264,757.6,01.16,0.508
2016-04-17 04:18:00,1721E-3,5C000410,-0724,0838,11442,022.8,045.3,0.264,757.6,01.16,0.508
2016-04-17 04:19:00,1643E-3,5C000400,-0724,0834,11993,022.8,045.3,0.264,757.6,01.16,0.508
2016-04-17 04:20:00,1565E-3,5C000400,-0724,0835,11051,022.8,045.3,0.264,757.5,01.16,0.508